<?xml version="1.0" encoding="UTF-8" standalone="no" ?>
<gpx xmlns="http://www.topografix.com/GPX/1/1" xmlns:xsi="http://www.w3.org/2001/XMLSchema-instance" xsi:schemaLocation="http://www.topografix.com/GPX/1/1 http://www.topografix.com/GPX/1/1/gpx.xsd" version="1.1" creator="VisuGPX - https://www.visugpx.com">
  <metadata>
    <name>BelleIsleEnTerre_Court14-16km</name>
    <desc><![CDATA[gnerando idor: 9560775_9560935]]></desc>
  </metadata>
  <trk>
    <name><![CDATA[BIET-Court2_14km-9560775]]></name>
    <extensions>
      <line xmlns="http://www.topografix.com/GPX/gpx_style/0/2">
        <color>0000FF</color>
        <width>4</width>
      </line>
    </extensions>
    <trkseg>
      <trkpt lat="48.54605" lon="-3.39591">
        <ele>91</ele>
        <time>2023-10-30T16:43:49Z</time>
      </trkpt>
      <trkpt lat="48.54578" lon="-3.39577">
        <ele>90</ele>
        <time>2023-10-30T16:44:27Z</time>
      </trkpt>
      <trkpt lat="48.54522" lon="-3.39568">
        <ele>93</ele>
        <time>2023-10-30T16:45:42Z</time>
      </trkpt>
      <trkpt lat="48.54471" lon="-3.39587">
        <ele>94</ele>
        <time>2023-10-30T16:46:52Z</time>
      </trkpt>
      <trkpt lat="48.54459" lon="-3.3961">
        <ele>94</ele>
        <time>2023-10-30T16:47:18Z</time>
      </trkpt>
      <trkpt lat="48.54417" lon="-3.39618">
        <ele>94</ele>
        <time>2023-10-30T16:48:15Z</time>
      </trkpt>
      <trkpt lat="48.54411" lon="-3.3976">
        <ele>95</ele>
        <time>2023-10-30T16:50:20Z</time>
      </trkpt>
      <trkpt lat="48.54302" lon="-3.39779">
        <ele>99</ele>
        <time>2023-10-30T16:52:47Z</time>
      </trkpt>
      <trkpt lat="48.5426" lon="-3.39805">
        <ele>101</ele>
        <time>2023-10-30T16:53:47Z</time>
      </trkpt>
      <trkpt lat="48.54212" lon="-3.39795">
        <ele>101</ele>
        <time>2023-10-30T16:54:52Z</time>
      </trkpt>
      <trkpt lat="48.54139" lon="-3.39794">
        <ele>103</ele>
        <time>2023-10-30T16:56:29Z</time>
      </trkpt>
      <trkpt lat="48.54066" lon="-3.39794">
        <ele>104</ele>
        <time>2023-10-30T16:58:07Z</time>
      </trkpt>
      <trkpt lat="48.53994" lon="-3.39786">
        <ele>102</ele>
        <time>2023-10-30T16:59:43Z</time>
      </trkpt>
      <trkpt lat="48.53932" lon="-3.39844">
        <ele>102</ele>
        <time>2023-10-30T17:01:21Z</time>
      </trkpt>
      <trkpt lat="48.53888" lon="-3.39931">
        <ele>113</ele>
        <time>2023-10-30T17:02:57Z</time>
      </trkpt>
      <trkpt lat="48.53819" lon="-3.39962">
        <ele>119</ele>
        <time>2023-10-30T17:04:33Z</time>
      </trkpt>
      <trkpt lat="48.53787" lon="-3.40061">
        <ele>124</ele>
        <time>2023-10-30T17:06:11Z</time>
      </trkpt>
      <trkpt lat="48.53716" lon="-3.40087">
        <ele>135</ele>
        <time>2023-10-30T17:07:48Z</time>
      </trkpt>
      <trkpt lat="48.53653" lon="-3.40153">
        <ele>141</ele>
        <time>2023-10-30T17:09:31Z</time>
      </trkpt>
      <trkpt lat="48.53603" lon="-3.40108">
        <ele>143</ele>
        <time>2023-10-30T17:10:48Z</time>
      </trkpt>
      <trkpt lat="48.53538" lon="-3.40156">
        <ele>147</ele>
        <time>2023-10-30T17:12:25Z</time>
      </trkpt>
      <trkpt lat="48.53483" lon="-3.40229">
        <ele>150</ele>
        <time>2023-10-30T17:14:02Z</time>
      </trkpt>
      <trkpt lat="48.53414" lon="-3.40196">
        <ele>151</ele>
        <time>2023-10-30T17:15:39Z</time>
      </trkpt>
      <trkpt lat="48.53346" lon="-3.40159">
        <ele>153</ele>
        <time>2023-10-30T17:17:15Z</time>
      </trkpt>
      <trkpt lat="48.53274" lon="-3.40149">
        <ele>156</ele>
        <time>2023-10-30T17:18:52Z</time>
      </trkpt>
      <trkpt lat="48.53211" lon="-3.40096">
        <ele>158</ele>
        <time>2023-10-30T17:20:28Z</time>
      </trkpt>
      <trkpt lat="48.53147" lon="-3.40042">
        <ele>158</ele>
        <time>2023-10-30T17:22:06Z</time>
      </trkpt>
      <trkpt lat="48.5308" lon="-3.4">
        <ele>154</ele>
        <time>2023-10-30T17:23:43Z</time>
      </trkpt>
      <trkpt lat="48.53012" lon="-3.39961">
        <ele>146</ele>
        <time>2023-10-30T17:25:20Z</time>
      </trkpt>
      <trkpt lat="48.52944" lon="-3.39928">
        <ele>141</ele>
        <time>2023-10-30T17:26:55Z</time>
      </trkpt>
      <trkpt lat="48.52877" lon="-3.39883">
        <ele>134</ele>
        <time>2023-10-30T17:28:33Z</time>
      </trkpt>
      <trkpt lat="48.52809" lon="-3.39845">
        <ele>126</ele>
        <time>2023-10-30T17:30:10Z</time>
      </trkpt>
      <trkpt lat="48.52736" lon="-3.39841">
        <ele>125</ele>
        <time>2023-10-30T17:31:47Z</time>
      </trkpt>
      <trkpt lat="48.52667" lon="-3.39874">
        <ele>122</ele>
        <time>2023-10-30T17:33:24Z</time>
      </trkpt>
      <trkpt lat="48.52608" lon="-3.39939">
        <ele>122</ele>
        <time>2023-10-30T17:35:01Z</time>
      </trkpt>
      <trkpt lat="48.52545" lon="-3.39995">
        <ele>124</ele>
        <time>2023-10-30T17:36:39Z</time>
      </trkpt>
      <trkpt lat="48.52473" lon="-3.40011">
        <ele>119</ele>
        <time>2023-10-30T17:38:16Z</time>
      </trkpt>
      <trkpt lat="48.52402" lon="-3.39995">
        <ele>112</ele>
        <time>2023-10-30T17:39:52Z</time>
      </trkpt>
      <trkpt lat="48.52331" lon="-3.40014">
        <ele>109</ele>
        <time>2023-10-30T17:41:28Z</time>
      </trkpt>
      <trkpt lat="48.52268" lon="-3.40069">
        <ele>116</ele>
        <time>2023-10-30T17:43:05Z</time>
      </trkpt>
      <trkpt lat="48.522" lon="-3.40105">
        <ele>113</ele>
        <time>2023-10-30T17:44:41Z</time>
      </trkpt>
      <trkpt lat="48.5213" lon="-3.40136">
        <ele>110</ele>
        <time>2023-10-30T17:46:19Z</time>
      </trkpt>
      <trkpt lat="48.52061" lon="-3.40167">
        <ele>109</ele>
        <time>2023-10-30T17:47:55Z</time>
      </trkpt>
      <trkpt lat="48.52" lon="-3.40227">
        <ele>110</ele>
        <time>2023-10-30T17:49:32Z</time>
      </trkpt>
      <trkpt lat="48.51944" lon="-3.40296">
        <ele>111</ele>
        <time>2023-10-30T17:51:08Z</time>
      </trkpt>
      <trkpt lat="48.51896" lon="-3.40378">
        <ele>114</ele>
        <time>2023-10-30T17:52:45Z</time>
      </trkpt>
      <trkpt lat="48.51869" lon="-3.40479">
        <ele>113</ele>
        <time>2023-10-30T17:54:21Z</time>
      </trkpt>
      <trkpt lat="48.51906" lon="-3.40573">
        <ele>113</ele>
        <time>2023-10-30T17:55:58Z</time>
      </trkpt>
      <trkpt lat="48.51993" lon="-3.40746">
        <ele>120</ele>
        <time>2023-10-30T17:59:10Z</time>
      </trkpt>
      <trkpt lat="48.5202" lon="-3.40847">
        <ele>120</ele>
        <time>2023-10-30T18:00:46Z</time>
      </trkpt>
      <trkpt lat="48.52033" lon="-3.40955">
        <ele>118</ele>
        <time>2023-10-30T18:02:23Z</time>
      </trkpt>
      <trkpt lat="48.5204" lon="-3.41064">
        <ele>116</ele>
        <time>2023-10-30T18:04:00Z</time>
      </trkpt>
      <trkpt lat="48.52045" lon="-3.41174">
        <ele>114</ele>
        <time>2023-10-30T18:05:38Z</time>
      </trkpt>
      <trkpt lat="48.52088" lon="-3.41263">
        <ele>120</ele>
        <time>2023-10-30T18:07:15Z</time>
      </trkpt>
      <trkpt lat="48.52058" lon="-3.41363">
        <ele>118</ele>
        <time>2023-10-30T18:08:52Z</time>
      </trkpt>
      <trkpt lat="48.52051" lon="-3.41473">
        <ele>121</ele>
        <time>2023-10-30T18:10:30Z</time>
      </trkpt>
      <trkpt lat="48.52025" lon="-3.41577">
        <ele>119</ele>
        <time>2023-10-30T18:12:08Z</time>
      </trkpt>
      <trkpt lat="48.52001" lon="-3.4168">
        <ele>122</ele>
        <time>2023-10-30T18:13:44Z</time>
      </trkpt>
      <trkpt lat="48.51965" lon="-3.41774">
        <ele>126</ele>
        <time>2023-10-30T18:15:20Z</time>
      </trkpt>
      <trkpt lat="48.51899" lon="-3.41821">
        <ele>119</ele>
        <time>2023-10-30T18:16:58Z</time>
      </trkpt>
      <trkpt lat="48.51834" lon="-3.4187">
        <ele>116</ele>
        <time>2023-10-30T18:18:35Z</time>
      </trkpt>
      <trkpt lat="48.51761" lon="-3.41883">
        <ele>111</ele>
        <time>2023-10-30T18:20:13Z</time>
      </trkpt>
      <trkpt lat="48.51699" lon="-3.41828">
        <ele>109</ele>
        <time>2023-10-30T18:21:49Z</time>
      </trkpt>
      <trkpt lat="48.51641" lon="-3.41763">
        <ele>115</ele>
        <time>2023-10-30T18:23:25Z</time>
      </trkpt>
      <trkpt lat="48.51587" lon="-3.41688">
        <ele>121</ele>
        <time>2023-10-30T18:25:03Z</time>
      </trkpt>
      <trkpt lat="48.51519" lon="-3.41654">
        <ele>122</ele>
        <time>2023-10-30T18:26:39Z</time>
      </trkpt>
      <trkpt lat="48.51489" lon="-3.41753">
        <ele>132</ele>
        <time>2023-10-30T18:28:15Z</time>
      </trkpt>
      <trkpt lat="48.51427" lon="-3.4181">
        <ele>128</ele>
        <time>2023-10-30T18:29:52Z</time>
      </trkpt>
      <trkpt lat="48.51355" lon="-3.41814">
        <ele>125</ele>
        <time>2023-10-30T18:31:28Z</time>
      </trkpt>
      <trkpt lat="48.51315" lon="-3.41722">
        <ele>123</ele>
        <time>2023-10-30T18:33:05Z</time>
      </trkpt>
      <trkpt lat="48.51361" lon="-3.41639">
        <ele>126</ele>
        <time>2023-10-30T18:34:41Z</time>
      </trkpt>
      <trkpt lat="48.51393" lon="-3.4154">
        <ele>131</ele>
        <time>2023-10-30T18:36:18Z</time>
      </trkpt>
      <trkpt lat="48.51412" lon="-3.41435">
        <ele>135</ele>
        <time>2023-10-30T18:37:54Z</time>
      </trkpt>
      <trkpt lat="48.51437" lon="-3.41333">
        <ele>137</ele>
        <time>2023-10-30T18:39:31Z</time>
      </trkpt>
      <trkpt lat="48.5143" lon="-3.41224">
        <ele>143</ele>
        <time>2023-10-30T18:41:07Z</time>
      </trkpt>
      <trkpt lat="48.5148" lon="-3.41144">
        <ele>144</ele>
        <time>2023-10-30T18:42:45Z</time>
      </trkpt>
      <trkpt lat="48.51525" lon="-3.4106">
        <ele>144</ele>
        <time>2023-10-30T18:44:20Z</time>
      </trkpt>
      <trkpt lat="48.51565" lon="-3.40969">
        <ele>144</ele>
        <time>2023-10-30T18:45:57Z</time>
      </trkpt>
      <trkpt lat="48.51635" lon="-3.40939">
        <ele>140</ele>
        <time>2023-10-30T18:47:34Z</time>
      </trkpt>
      <trkpt lat="48.51651" lon="-3.40832">
        <ele>139</ele>
        <time>2023-10-30T18:49:11Z</time>
      </trkpt>
      <trkpt lat="48.51644" lon="-3.40723">
        <ele>146</ele>
        <time>2023-10-30T18:50:48Z</time>
      </trkpt>
      <trkpt lat="48.51689" lon="-3.40638">
        <ele>146</ele>
        <time>2023-10-30T18:52:24Z</time>
      </trkpt>
      <trkpt lat="48.51732" lon="-3.40551">
        <ele>143</ele>
        <time>2023-10-30T18:54:00Z</time>
      </trkpt>
      <trkpt lat="48.51744" lon="-3.40443">
        <ele>146</ele>
        <time>2023-10-30T18:55:36Z</time>
      </trkpt>
      <trkpt lat="48.51756" lon="-3.40334">
        <ele>147</ele>
        <time>2023-10-30T18:57:14Z</time>
      </trkpt>
      <trkpt lat="48.51794" lon="-3.40242">
        <ele>141</ele>
        <time>2023-10-30T18:58:50Z</time>
      </trkpt>
      <trkpt lat="48.51817" lon="-3.40138">
        <ele>143</ele>
        <time>2023-10-30T19:00:27Z</time>
      </trkpt>
      <trkpt lat="48.5176" lon="-3.40071">
        <ele>153</ele>
        <time>2023-10-30T19:02:03Z</time>
      </trkpt>
      <trkpt lat="48.51707" lon="-3.39996">
        <ele>157</ele>
        <time>2023-10-30T19:03:40Z</time>
      </trkpt>
      <trkpt lat="48.51645" lon="-3.39938">
        <ele>162</ele>
        <time>2023-10-30T19:05:18Z</time>
      </trkpt>
      <trkpt lat="48.51583" lon="-3.39883">
        <ele>164</ele>
        <time>2023-10-30T19:06:54Z</time>
      </trkpt>
      <trkpt lat="48.51599" lon="-3.39713">
        <ele>168</ele>
        <time>2023-10-30T19:09:25Z</time>
      </trkpt>
      <trkpt lat="48.5168" lon="-3.39701">
        <ele>165</ele>
        <time>2023-10-30T19:11:14Z</time>
      </trkpt>
      <trkpt lat="48.51698" lon="-3.3986">
        <ele>158</ele>
        <time>2023-10-30T19:13:37Z</time>
      </trkpt>
      <trkpt lat="48.51914" lon="-3.40113">
        <ele>113</ele>
        <time>2023-10-30T19:19:41Z</time>
      </trkpt>
      <trkpt lat="48.51914" lon="-3.40153">
        <ele>107</ele>
        <time>2023-10-30T19:20:17Z</time>
      </trkpt>
      <trkpt lat="48.51972" lon="-3.4024">
        <ele>110</ele>
        <time>2023-10-30T19:22:06Z</time>
      </trkpt>
      <trkpt lat="48.52122" lon="-3.40113">
        <ele>108</ele>
        <time>2023-10-30T19:25:55Z</time>
      </trkpt>
      <trkpt lat="48.52166" lon="-3.40291">
        <ele>123</ele>
        <time>2023-10-30T19:28:43Z</time>
      </trkpt>
      <trkpt lat="48.52218" lon="-3.40355">
        <ele>133</ele>
        <time>2023-10-30T19:30:13Z</time>
      </trkpt>
      <trkpt lat="48.52208" lon="-3.40398">
        <ele>135</ele>
        <time>2023-10-30T19:30:53Z</time>
      </trkpt>
      <trkpt lat="48.5216" lon="-3.40391">
        <ele>131</ele>
        <time>2023-10-30T19:31:57Z</time>
      </trkpt>
      <trkpt lat="48.52197" lon="-3.40974">
        <ele>154</ele>
        <time>2023-10-30T19:40:35Z</time>
      </trkpt>
      <trkpt lat="48.52255" lon="-3.40994">
        <ele>159</ele>
        <time>2023-10-30T19:41:54Z</time>
      </trkpt>
      <trkpt lat="48.52267" lon="-3.40973">
        <ele>160</ele>
        <time>2023-10-30T19:42:19Z</time>
      </trkpt>
      <trkpt lat="48.52282" lon="-3.40952">
        <ele>160</ele>
        <time>2023-10-30T19:42:46Z</time>
      </trkpt>
      <trkpt lat="48.52365" lon="-3.41056">
        <ele>155</ele>
        <time>2023-10-30T19:45:10Z</time>
      </trkpt>
      <trkpt lat="48.52406" lon="-3.41057">
        <ele>156</ele>
        <time>2023-10-30T19:46:05Z</time>
      </trkpt>
      <trkpt lat="48.52595" lon="-3.41106">
        <ele>163</ele>
        <time>2023-10-30T19:50:21Z</time>
      </trkpt>
      <trkpt lat="48.52609" lon="-3.41274">
        <ele>161</ele>
        <time>2023-10-30T19:52:50Z</time>
      </trkpt>
      <trkpt lat="48.52557" lon="-3.41488">
        <ele>158</ele>
        <time>2023-10-30T19:56:12Z</time>
      </trkpt>
      <trkpt lat="48.52602" lon="-3.41554">
        <ele>161</ele>
        <time>2023-10-30T19:57:36Z</time>
      </trkpt>
      <trkpt lat="48.52987" lon="-3.41676">
        <ele>173</ele>
        <time>2023-10-30T20:06:21Z</time>
      </trkpt>
      <trkpt lat="48.53068" lon="-3.41344">
        <ele>171</ele>
        <time>2023-10-30T20:11:33Z</time>
      </trkpt>
      <trkpt lat="48.53244" lon="-3.41142">
        <ele>176</ele>
        <time>2023-10-30T20:16:28Z</time>
      </trkpt>
      <trkpt lat="48.53632" lon="-3.41227">
        <ele>149</ele>
        <time>2023-10-30T20:25:11Z</time>
      </trkpt>
      <trkpt lat="48.53672" lon="-3.41094">
        <ele>145</ele>
        <time>2023-10-30T20:27:21Z</time>
      </trkpt>
      <trkpt lat="48.53718" lon="-3.41088">
        <ele>144</ele>
        <time>2023-10-30T20:28:22Z</time>
      </trkpt>
      <trkpt lat="48.53796" lon="-3.41237">
        <ele>145</ele>
        <time>2023-10-30T20:31:10Z</time>
      </trkpt>
      <trkpt lat="48.53927" lon="-3.41223">
        <ele>148</ele>
        <time>2023-10-30T20:34:05Z</time>
      </trkpt>
      <trkpt lat="48.53995" lon="-3.40778">
        <ele>144</ele>
        <time>2023-10-30T20:40:49Z</time>
      </trkpt>
      <trkpt lat="48.54178" lon="-3.41036">
        <ele>148</ele>
        <time>2023-10-30T20:46:23Z</time>
      </trkpt>
      <trkpt lat="48.54295" lon="-3.41261">
        <ele>153</ele>
        <time>2023-10-30T20:50:36Z</time>
      </trkpt>
      <trkpt lat="48.54393" lon="-3.41276">
        <ele>153</ele>
        <time>2023-10-30T20:52:47Z</time>
      </trkpt>
      <trkpt lat="48.54443" lon="-3.41188">
        <ele>153</ele>
        <time>2023-10-30T20:54:30Z</time>
      </trkpt>
      <trkpt lat="48.54469" lon="-3.40693">
        <ele>136</ele>
        <time>2023-10-30T21:01:48Z</time>
      </trkpt>
      <trkpt lat="48.54574" lon="-3.40177">
        <ele>115</ele>
        <time>2023-10-30T21:09:45Z</time>
      </trkpt>
      <trkpt lat="48.54577" lon="-3.40034">
        <ele>107</ele>
        <time>2023-10-30T21:11:51Z</time>
      </trkpt>
      <trkpt lat="48.54587" lon="-3.39906">
        <ele>95</ele>
        <time>2023-10-30T21:13:45Z</time>
      </trkpt>
      <trkpt lat="48.54637" lon="-3.39914">
        <ele>94</ele>
        <time>2023-10-30T21:14:52Z</time>
      </trkpt>
      <trkpt lat="48.54723" lon="-3.39857">
        <ele>94</ele>
        <time>2023-10-30T21:16:58Z</time>
      </trkpt>
      <trkpt lat="48.54712" lon="-3.39835">
        <ele>92</ele>
        <time>2023-10-30T21:17:22Z</time>
      </trkpt>
      <trkpt lat="48.54762" lon="-3.39769">
        <ele>91</ele>
        <time>2023-10-30T21:18:51Z</time>
      </trkpt>
      <trkpt lat="48.54747" lon="-3.39691">
        <ele>91</ele>
        <time>2023-10-30T21:20:03Z</time>
      </trkpt>
      <trkpt lat="48.54649" lon="-3.3967">
        <ele>90</ele>
        <time>2023-10-30T21:22:15Z</time>
      </trkpt>
      <trkpt lat="48.54612" lon="-3.39574">
        <ele>91</ele>
        <time>2023-10-30T21:23:53Z</time>
      </trkpt>
    </trkseg>
  </trk>
</gpx>